Temperature
18 18 18 17 17 17 17 17 17 17 17 17 17 17 17 17 17 16 16 16 16 16 16 16 16 16 16 16 16 16 15 15 15 15 15 15 15 15
17 17 17 17 17 17 17 17 17 16 16 17 17 17 16 16 16 16 16 16 16 16 16 16 15 15 15 15 15 15 15 15 15 15 15 15 15 15
17 17 17 17 17 17 16 16 16 16 16 16 16 16 16 16 16 16 16 15 15 16 16 15 15 15 15 15 15 15 15 15 15 15 15 15 15 15
17 17 17 16 16 16 16 16 16 16 16 15 15 15 15 15 15 15 15 15 15 15 15 15 15 15 15 15 15 15 15 15 14 15 15 15 15 15
16 16 16 16 16 16 16 16 15 15 15 15 15 15 15 15 15 15 15 15 15 15 15 15 15 15 15 15 15 14 14 14 14 14 14 14 14 14
16 16 16 16 16 16 15 15 15 15 15 15 15 15 15 15 15 14 14 14 14 14 14 14 14 14 14 15 14 14 14 14 14 14 14 14 14 14
16 16 16 16 16 15 15 15 15 15 15 15 14 14 14 14 14 14 14 14 14 14 14 14 14 14 14 14 14 14 14 14 14 14 14 14 14 14
16 15 15 15 15 15 15 15 15 14 14 14 14 14 14 14 13 13 13 13 13 14 14 14 14 14 14 14 14 14 14 14 13 13 13 13 13 13
15 15 15 15 15 15 15 15 14 14 14 14 14 14 13 13 13 13 13 13 13 13 13 13 14 14 13 13 13 13 13 13 13 13 13 13 13 13
15 15 14 15 15 15 14 14 14 14 14 13 13 13 13 13 13 13 13 13 13 13 13 13 13 13 13 13 13 13 13 13 13 13 13 13 13 13
15 15 14 14 14 14 14 14 14 14 13 13 13 13 13 13 13 13 12 12 12 13 13 12 12 12 12 12 13 13 13 13 13 13 13 13 13 13
14 14 14 14 14 14 13 13 13 13 13 13 13 13 13 13 12 12 12 12 12 12 12 12 12 12 11 12 12 12 12 12 12 12 12 12 12 12
14 14 14 14 14 13 13 13 13 13 13 12 13 13 12 12 12 12 12 12 12 11 11 11 11 11 11 11 11 12 12 12 12 12 12 12 12 12
13 13 13 13 13 13 13 13 13 12 12 12 12 12 12 12 12 12 12 12 11 11 11 11 11 11 11 10 11 11 11 12 12 12 12 12 12 12
13 13 13 13 13 13 13 12 12 12 12 12 12 12 12 12 11 11 11 11 11 11 11 11 11 11 10 10 10 10 11 11 11 11 11 11 11 11
13 13 13 13 13 13 12 12 12 12 12 11 11 11 11 11 11 11 11 11 11 11 11 11 11 10 10 10 10 10 10 11 11 11 11 11 11 11
12 12 12 12 12 12 12 12 12 11 11 11 11 11 11 11 11 11 10 10 10 10 10 10 10 10 10 10 10 10 10 10 10 10 10 10 10 11
12 12 12 12 11 11 11 11 11 11 11 11 11 10 10 10 10 10 10 10 10 10 10 10 10 10 10 10 10 10 10 10 10 10 10 10 10 10
12 11 11 11 11 11 11 10 10 10 10 10 10 10 10 10 10 10 10 10 9 9 9 9 9 9 9 9 9 10 10 10 10 10 10 10 10 10
11 11 11 10 10 10 10 10 10 10 10 10 10 10 10 9 9 9 9 9 9 9 9 9 9 9 9 9 9 9 10 9 9 9 10 10 10 10
11 10 10 10 10 10 9 9 9 9 9 9 9 9 9 9 9 9 9 9 9 8 8 8 9 9 9 8 8 9 9 9 9 9 9 9 9 9
10 10 10 10 9 9 9 9 9 9 9 9 9 8 8 8 8 8 8 8 8 8 8 8 8 8 8 8 8 8 8 9 9 9 9 9 9 9
10 10 9 9 9 9 9 9 8 8 8 8 8 8 8 8 8 8 8 8 8 8 8 8 8 8 8 8 8 8 8 8 8 8 9 9 9 9
Wind_Speed
3 2 3 2 3 3 3 2 2 3 3 3 2 1 1 1 3 3 2 5 7 8 9 8 7 7 6 6 6 6 6 6 5 5 6 7 8 9
2 2 3 3 3 3 2 2 2 2 3 3 3 3 3 2 1 1 2 4 7 9 10 9 8 8 7 7 6 6 5 5 5 5 4 5 6 7
3 2 2 2 2 3 3 2 2 1 3 3 3 4 4 3 2 2 4 4 4 8 10 9 9 8 8 7 6 6 5 5 5 5 5 5 4 4
3 2 3 2 2 3 3 3 2 2 2 4 3 3 3 3 2 3 3 4 3 6 8 9 9 9 9 8 7 6 5 5 4 4 4 4 4 4
3 2 3 2 3 2 3 3 3 3 2 3 4 3 3 3 3 4 4 3 4 3 6 8 8 9 9 9 8 7 6 5 4 4 4 4 4 4
2 2 3 2 2 3 3 3 3 3 3 3 3 3 2 3 3 3 3 2 3 4 2 3 5 7 8 8 8 7 6 5 5 4 4 5 4 4
3 3 3 2 1 2 3 2 3 2 3 3 3 3 3 3 3 3 4 3 3 3 2 2 2 3 4 6 7 7 7 6 6 5 5 5 4 4
3 3 3 2 1 2 2 2 3 3 3 3 3 3 4 4 3 4 4 3 3 2 2 3 2 2 2 3 6 7 7 7 7 6 6 5 5 4
2 2 4 3 1 1 2 3 4 4 4 4 4 5 4 3 3 4 5 4 5 4 3 4 2 2 2 1 5 7 8 8 7 7 6 6 6 5
2 2 2 2 2 2 2 2 3 3 4 4 4 4 4 2 2 4 5 5 4 4 2 3 2 2 2 1 3 5 7 8 8 7 7 7 6 6
3 1 0 1 2 2 2 3 3 4 5 4 4 5 5 5 4 2 4 3 4 3 1 1 2 2 2 2 3 5 7 7 8 8 8 8 7 6
3 1 0 1 2 1 2 3 4 4 5 5 4 5 5 5 5 4 3 3 3 3 2 1 2 2 3 2 1 2 4 6 7 8 9 8 7 4
4 2 1 1 2 3 4 4 5 4 5 4 4 4 4 3 3 3 3 3 3 3 2 2 2 2 2 3 3 3 3 2 2 4 7 7 8 6
4 3 2 4 5 6 6 6 7 5 4 4 4 3 3 3 2 2 3 3 3 4 4 2 2 2 2 3 3 3 3 2 1 2 2 4 6 7
4 6 6 6 7 7 8 8 5 3 3 4 4 4 3 2 2 2 2 3 3 4 4 3 2 2 3 3 3 4 4 3 2 2 1 2 3 3
5 6 7 5 5 6 4 4 3 3 3 4 4 4 3 2 1 1 2 1 2 2 3 2 2 3 3 4 4 4 4 3 2 3 2 2 2 3
5 4 4 2 2 2 1 1 2 2 3 4 4 3 3 2 1 1 1 2 2 2 2 2 2 2 4 4 4 4 3 3 2 2 2 2 2 2
3 4 3 2 2 3 3 3 2 2 3 3 3 3 3 2 2 1 1 2 2 3 3 2 2 2 3 4 3 3 3 3 3 2 2 2 3 2
2 3 3 2 2 3 3 3 3 3 3 3 3 2 2 3 3 2 2 2 3 3 3 3 2 2 4 5 4 3 3 3 3 3 2 2 3 3
2 3 3 2 2 3 3 3 3 3 2 3 3 3 2 3 3 3 3 3 3 3 4 3 2 2 4 5 5 5 5 4 3 3 2 2 2 0
3 2 2 2 3 3 3 3 3 3 3 3 3 3 2 3 3 3 3 4 3 3 4 4 3 3 3 3 3 4 4 4 3 3 2 2 2 2
2 2 2 2 2 2 2 2 3 3 3 3 3 3 3 3 3 4 4 3 3 3 4 3 3 2 2 3 4 4 4 3 2 3 3 3 2 3
2 2 2 3 3 2 2 2 3 4 3 3 3 3 3 3 4 4 4 4 3 4 3 3 3 3 3 3 3 4 4 4 3 2 2 2 3 4
Wind_Direction
304 310 309 307 304 298 292 288 282 297 306 317 314 314 54 91 129 170 210 210 215 219 216 217 222 229 239 248 252 258 266 273 273 276 271 261 255 253
293 305 304 310 309 307 305 296 286 280 290 312 314 332 333 313 143 189 261 233 223 217 213 214 223 228 233 238 241 245 251 252 252 263 272 271 264 256
297 300 300 321 330 318 314 312 303 283 275 291 308 319 316 313 310 269 267 244 233 223 218 217 220 224 228 232 235 236 241 243 247 252 258 268 273 261
295 308 311 314 317 308 320 311 311 283 261 278 288 288 292 295 287 277 289 278 256 228 216 218 217 222 228 230 231 232 230 236 246 252 256 255 256 257
295 299 298 304 301 305 308 304 297 299 279 268 276 282 288 300 304 297 294 287 289 262 222 221 222 226 228 226 224 222 226 229 236 246 252 254 256 259
288 280 279 280 288 297 293 294 298 305 298 286 279 287 297 305 307 305 306 306 299 295 286 239 231 230 228 222 215 212 214 219 225 234 243 249 253 254
287 278 274 271 285 288 304 315 311 305 299 297 295 305 312 319 317 309 302 299 299 303 309 275 237 226 222 215 208 206 208 215 221 228 236 243 246 248
292 293 278 272 259 261 285 289 283 276 285 288 293 296 303 306 317 312 313 310 299 302 310 295 289 269 229 191 187 193 204 213 220 226 230 234 235 240
289 295 297 310 16 305 272 274 276 283 277 266 273 280 286 300 306 306 302 298 287 283 290 284 290 305 298 231 186 196 206 213 220 226 228 230 231 234
274 265 287 338 319 318 287 287 280 283 269 263 270 281 290 300 294 290 288 286 278 270 271 279 284 299 300 241 221 213 214 220 224 226 229 229 231 234
275 267 285 293 333 339 294 285 284 285 278 286 279 265 269 272 273 293 295 293 293 295 302 285 304 318 297 274 250 227 222 226 228 229 230 229 231 232
277 242 226 285 275 255 264 277 286 295 305 298 287 273 261 257 245 234 262 286 298 299 337 342 312 322 303 287 290 258 230 230 234 230 228 230 224 217
308 309 311 340 293 263 261 265 273 286 288 283 277 271 264 255 236 226 240 253 272 284 305 322 299 307 292 295 296 283 267 249 230 236 229 226 216 210
306 319 301 269 263 260 257 264 273 283 279 280 281 278 278 275 265 241 243 241 240 254 256 256 268 276 282 294 299 290 287 283 284 260 234 220 218 225
314 322 302 271 262 255 252 256 258 262 274 281 284 280 274 266 266 261 248 249 262 272 273 234 233 252 253 264 279 286 289 278 259 272 263 212 221 224
308 307 291 273 258 261 265 259 249 257 262 270 281 282 292 285 263 272 279 276 279 284 282 271 248 241 254 265 270 273 276 266 259 274 267 243 230 212
319 304 294 294 285 282 279 290 287 288 283 285 287 287 290 294 288 265 260 286 285 283 293 298 290 273 262 262 265 267 273 280 266 269 273 266 250 233
311 298 301 314 325 325 320 307 300 305 300 293 294 296 299 297 290 290 290 285 288 291 292 288 298 304 301 293 259 263 274 280 276 266 263 267 269 255
277 289 301 317 322 316 309 306 306 303 305 309 302 302 307 302 293 284 283 281 281 280 281 283 284 293 303 299 293 265 266 270 265 263 257 256 261 262
272 288 300 308 309 306 307 308 311 314 324 318 313 311 310 307 301 293 285 289 291 291 291 290 290 286 282 288 294 296 276 254 257 254 262 266 276 287
289 294 299 303 305 303 307 307 305 308 319 312 306 302 302 302 299 294 291 297 293 292 291 291 294 294 285 290 290 292 296 278 260 253 244 238 250 258
294 300 309 310 303 301 299 301 306 309 310 307 308 304 302 300 297 293 293 295 291 291 300 304 307 310 296 287 288 290 294 298 283 267 250 217 214 225
326 323 324 321 320 315 319 320 318 315 316 318 314 304 308 300 289 287 288 294 300 300 303 305 305 297 293 286 287 293 299 300 288 278 284 266 244 225
Height
1509 1508 1507 1507 1507 1506 1506 1506 1506 1504 1503 1503 1502 1502 1501 1499 1498 1497 1497 1496 1495 1494 1493 1492 1492 1491 1490 1490 1489 1489 1488 1488 1488 1488 1489 1489 1490 1491
1507 1506 1505 1504 1504 1504 1503 1503 1503 1502 1501 1501 1500 1499 1498 1497 1496 1494 1493 1493 1492 1491 1490 1489 1489 1488 1487 1487 1486 1485 1485 1485 1485 1485 1485 1485 1486 1486
1504 1504 1503 1502 1501 1501 1501 1501 1500 1500 1499 1498 1498 1496 1495 1494 1492 1491 1490 1489 1488 1488 1487 1486 1486 1485 1484 1484 1483 1483 1482 1482 1482 1482 1482 1482 1482 1483
1502 1501 1501 1500 1499 1499 1498 1498 1498 1497 1496 1495 1494 1493 1492 1491 1489 1488 1487 1486 1486 1485 1485 1484 1483 1482 1481 1481 1480 1480 1479 1479 1479 1479 1479 1479 1479 1480
1499 1499 1498 1498 1497 1496 1496 1495 1495 1495 1493 1492 1491 1491 1490 1489 1487 1486 1485 1484 1483 1483 1482 1481 1480 1479 1478 1478 1477 1477 1477 1476 1476 1476 1476 1476 1476 1476
1496 1496 1495 1495 1494 1494 1493 1492 1492 1491 1491 1490 1489 1488 1487 1486 1485 1483 1482 1481 1481 1480 1479 1478 1477 1476 1475 1475 1474 1474 1474 1474 1473 1473 1472 1472 1472 1472
1493 1493 1493 1492 1492 1491 1490 1489 1489 1488 1487 1487 1486 1485 1484 1483 1482 1481 1480 1479 1478 1477 1476 1475 1474 1473 1472 1472 1471 1471 1471 1470 1470 1470 1469 1469 1469 1468
1490 1490 1489 1489 1488 1488 1487 1486 1486 1485 1485 1484 1484 1483 1481 1481 1479 1478 1477 1476 1474 1474 1473 1472 1471 1470 1470 1469 1468 1468 1468 1467 1467 1466 1466 1465 1465 1465
1487 1486 1486 1486 1485 1484 1484 1483 1482 1482 1482 1482 1480 1479 1479 1478 1477 1475 1474 1474 1472 1471 1470 1469 1468 1467 1467 1467 1466 1466 1465 1465 1464 1463 1463 1462 1462 1462
1483 1483 1483 1482 1481 1481 1480 1479 1478 1478 1479 1478 1477 1476 1476 1475 1474 1473 1472 1470 1469 1468 1468 1466 1466 1465 1464 1464 1464 1463 1463 1462 1461 1461 1460 1460 1460 1459
1481 1480 1480 1479 1478 1478 1477 1476 1475 1475 1476 1475 1474 1473 1472 1472 1471 1470 1469 1468 1466 1465 1465 1464 1463 1462 1461 1461 1461 1461 1460 1460 1459 1458 1458 1457 1457 1457
1478 1477 1477 1476 1475 1475 1474 1473 1472 1472 1472 1471 1471 1470 1469 1468 1468 1467 1466 1465 1464 1463 1462 1461 1460 1459 1458 1458 1458 1457 1457 1457 1456 1456 1455 1455 1454 1454
1476 1475 1474 1473 1472 1472 1471 1471 1470 1470 1469 1468 1467 1466 1466 1465 1464 1464 1463 1463 1461 1460 1460 1459 1457 1457 1456 1455 1454 1454 1454 1454 1453 1453 1452 1452 1452 1451
1473 1472 1471 1470 1470 1469 1469 1468 1467 1467 1466 1465 1464 1463 1462 1462 1461 1461 1460 1459 1459 1458 1457 1456 1455 1454 1453 1452 1451 1451 1451 1450 1450 1450 1450 1449 1448 1448
1471 1470 1469 1468 1467 1466 1466 1465 1464 1463 1463 1462 1461 1460 1460 1459 1459 1458 1457 1456 1455 1455 1454 1453 1452 1452 1451 1449 1448 1448 1447 1447 1447 1446 1446 1445 1444 1444
1468 1467 1466 1465 1464 1463 1463 1462 1461 1460 1460 1459 1458 1458 1457 1456 1455 1455 1454 1453 1452 1451 1451 1451 1450 1449 1448 1447 1446 1445 1444 1444 1444 1443 1443 1442 1442 1441
1465 1464 1463 1462 1461 1460 1460 1459 1458 1458 1457 1456 1455 1454 1454 1453 1452 1452 1451 1450 1449 1448 1448 1447 1447 1446 1445 1444 1443 1442 1441 1441 1440 1440 1439 1439 1438 1438
1463 1461 1460 1460 1459 1458 1457 1456 1455 1454 1453 1453 1452 1452 1451 1450 1449 1449 1448 1447 1447 1446 1445 1444 1443 1442 1442 1441 1441 1439 1439 1438 1437 1437 1437 1436 1435 1435
1459 1459 1458 1457 1456 1455 1454 1453 1452 1451 1451 1450 1449 1448 1448 1447 1447 1446 1445 1445 1444 1443 1442 1442 1441 1440 1438 1437 1437 1437 1436 1434 1434 1434 1433 1433 1432 1432
1457 1456 1455 1454 1453 1452 1452 1451 1450 1449 1448 1447 1446 1445 1445 1444 1444 1443 1442 1442 1441 1440 1439 1439 1438 1437 1436 1435 1433 1432 1433 1432 1431 1431 1430 1430 1430 1430
1454 1454 1453 1452 1451 1450 1449 1448 1447 1446 1445 1444 1443 1443 1442 1441 1441 1441 1440 1439 1438 1437 1436 1436 1435 1435 1433 1432 1430 1428 1429 1429 1429 1428 1427 1427 1426 1426
1452 1451 1450 1449 1448 1447 1446 1445 1444 1443 1443 1442 1441 1440 1440 1439 1438 1438 1437 1436 1435 1434 1434 1433 1432 1431 1430 1429 1427 1425 1425 1425 1425 1425 1425 1424 1423 1422
1449 1448 1447 1447 1446 1445 1443 1442 1441 1440 1440 1439 1438 1437 1436 1436 1436 1435 1434 1433 1432 1431 1430 1429 1429 1428 1427 1426 1424 1423 1422 1421 1421 1420 1420 1420 1420 1420